Location: Buchloe
(48.0161°N, 10.7316°E)
Time: 07:10:56
(UTC+02:00)

ISS - Pass Details

Date: 08 July 2025
Orbit: 413 x 417 km, 51.6° (Epoch: 16 July)

Event Time Altitude Azimuth Distance (km) Brightness Sun altitude
Rises 04:26:11 0° 291° (WNW) 2,358 -0.2 -8.4°
Reaches altitude 10° 04:28:21 10° 285° (WNW) 1,493 -1.2 -8.1°
Maximum altitude 04:31:32 42° 213° (SSW) 606 -3.4 -7.8°
Drops below altitude 10° 04:34:43 10° 141° (SE) 1,488 -1.0 -7.4°
Sets 04:36:51 0° 134° (SE) 2,348 0.1 -7.1°
